TimeCST,TemperatureF,Dew PointF,Humidity,Sea Level PressureIn,VisibilityMPH,Wind Direction,Wind SpeedMPH,Gust SpeedMPH,PrecipitationIn,Events,Conditions,WindDirDegrees,DateUTC
12:15 AM,26.6,24.8,93,30.10,10.0,Calm,Calm,-,N/A,,Clear,0,2012-12-28 06:15:00
12:35 AM,28.4,26.6,93,30.09,9.0,Calm,Calm,-,N/A,,Mostly Cloudy,0,2012-12-28 06:35:00
12:55 AM,28.4,26.6,93,30.08,8.0,Calm,Calm,-,N/A,,Overcast,0,2012-12-28 06:55:00
1:15 AM,30.2,28.4,93,30.09,8.0,Calm,Calm,-,N/A,,Overcast,0,2012-12-28 07:15:00
1:35 AM,30.2,28.4,93,30.09,10.0,Calm,Calm,-,N/A,,Overcast,0,2012-12-28 07:35:00
1:55 AM,30.2,28.4,93,30.08,10.0,Calm,Calm,-,N/A,,Overcast,0,2012-12-28 07:55:00
2:15 AM,30.2,28.4,93,30.09,10.0,Calm,Calm,-,N/A,,Overcast,0,2012-12-28 08:15:00
2:35 AM,32.0,28.4,87,30.09,10.0,Calm,Calm,-,N/A,,Overcast,0,2012-12-28 08:35:00
2:55 AM,32.0,28.4,87,30.09,9.0,Calm,Calm,-,N/A,,Overcast,0,2012-12-28 08:55:00
3:15 AM,32.0,30.2,93,30.09,10.0,Calm,Calm,-,N/A,,Overcast,0,2012-12-28 09:15:00
3:35 AM,33.8,28.4,81,30.09,10.0,Calm,Calm,-,N/A,,Overcast,0,2012-12-28 09:35:00
3:55 AM,33.8,28.4,81,30.08,10.0,Calm,Calm,-,N/A,,Overcast,0,2012-12-28 09:55:00
4:15 AM,33.8,28.4,81,30.08,10.0,Calm,Calm,-,N/A,,Overcast,0,2012-12-28 10:15:00
4:35 AM,33.8,28.4,81,30.08,10.0,Calm,Calm,-,N/A,,Mostly Cloudy,0,2012-12-28 10:35:00
4:55 AM,33.8,28.4,81,30.09,10.0,Calm,Calm,-,N/A,,Mostly Cloudy,0,2012-12-28 10:55:00
5:15 AM,32.0,28.4,87,30.09,10.0,Calm,Calm,-,N/A,,Scattered Clouds,0,2012-12-28 11:15:00
5:35 AM,32.0,28.4,87,30.08,10.0,Calm,Calm,-,N/A,,Clear,0,2012-12-28 11:35:00
5:55 AM,32.0,28.4,87,30.08,10.0,Calm,Calm,-,N/A,,Mostly Cloudy,0,2012-12-28 11:55:00
6:15 AM,32.0,28.4,87,30.08,10.0,Calm,Calm,-,N/A,,Overcast,0,2012-12-28 12:15:00
6:35 AM,32.0,28.4,87,30.09,10.0,NE,3.5,-,N/A,,Mostly Cloudy,40,2012-12-28 12:35:00
6:55 AM,33.8,28.4,81,30.08,10.0,ENE,4.6,-,N/A,,Overcast,70,2012-12-28 12:55:00
7:15 AM,33.8,28.4,81,30.08,10.0,NE,4.6,-,N/A,,Overcast,50,2012-12-28 13:15:00
7:35 AM,35.6,30.2,81,30.09,10.0,NE,5.8,-,N/A,,Overcast,50,2012-12-28 13:35:00
7:55 AM,35.6,30.2,81,30.11,10.0,NNE,5.8,-,N/A,,Overcast,30,2012-12-28 13:55:00
8:15 AM,35.6,30.2,81,30.10,10.0,ENE,6.9,-,N/A,,Overcast,70,2012-12-28 14:15:00
8:35 AM,35.6,30.2,81,30.11,10.0,ENE,5.8,-,N/A,,Overcast,60,2012-12-28 14:35:00
8:55 AM,37.4,32.0,81,30.10,10.0,NE,8.1,-,N/A,,Scattered Clouds,50,2012-12-28 14:55:00
9:15 AM,39.2,32.0,75,30.10,10.0,ENE,8.1,-,N/A,,Scattered Clouds,60,2012-12-28 15:15:00
9:35 AM,39.2,30.2,70,30.10,10.0,ENE,8.1,-,N/A,,Scattered Clouds,70,2012-12-28 15:35:00
9:55 AM,41.0,30.2,65,30.11,10.0,ENE,4.6,-,N/A,,Mostly Cloudy,60,2012-12-28 15:55:00
10:15 AM,42.8,32.0,66,30.08,10.0,East,5.8,-,N/A,,Mostly Cloudy,100,2012-12-28 16:15:00
10:35 AM,42.8,30.2,61,30.09,10.0,ENE,6.9,-,N/A,,Mostly Cloudy,70,2012-12-28 16:35:00
10:55 AM,42.8,32.0,66,30.07,10.0,ENE,6.9,-,N/A,,Mostly Cloudy,70,2012-12-28 16:55:00
11:15 AM,42.8,30.2,61,30.06,10.0,ENE,3.5,-,N/A,,Mostly Cloudy,60,2012-12-28 17:15:00
11:35 AM,44.6,30.2,57,30.04,10.0,East,4.6,-,N/A,,Overcast,80,2012-12-28 17:35:00
12:15 PM,44.6,30.2,57,30.01,10.0,ENE,5.8,-,N/A,,Mostly Cloudy,60,2012-12-28 18:15:00
12:35 PM,44.6,32.0,61,30.01,10.0,ENE,4.6,-,N/A,,Mostly Cloudy,60,2012-12-28 18:35:00
12:55 PM,44.6,32.0,61,29.98,10.0,ENE,6.9,-,N/A,,Overcast,60,2012-12-28 18:55:00
1:15 PM,44.6,33.8,66,29.98,10.0,ENE,4.6,-,N/A,,Overcast,60,2012-12-28 19:15:00
1:35 PM,44.6,32.0,61,29.97,10.0,East,3.5,-,N/A,,Overcast,80,2012-12-28 19:35:00
1:55 PM,44.6,33.8,66,29.96,10.0,ENE,3.5,-,N/A,,Overcast,60,2012-12-28 19:55:00
2:15 PM,44.6,33.8,66,29.95,10.0,ENE,5.8,-,N/A,,Overcast,60,2012-12-28 20:15:00
2:36 PM,44.6,33.8,66,29.94,10.0,ENE,9.2,-,N/A,,Partly Cloudy,60,2012-12-28 20:36:00
2:55 PM,44.6,33.8,66,29.93,10.0,ENE,6.9,-,N/A,,Clear,60,2012-12-28 20:55:00
3:15 PM,44.6,33.8,66,29.94,10.0,East,6.9,-,N/A,,Clear,80,2012-12-28 21:15:00
3:35 PM,42.8,37.4,81,29.95,10.0,NE,3.5,-,N/A,,Clear,50,2012-12-28 21:35:00
3:55 PM,42.8,37.4,81,29.94,8.0,East,4.6,-,0.02,,Clear,80,2012-12-28 21:55:00
4:35 PM,41.0,37.4,87,29.94,5.0,Calm,Calm,-,0.04,,Partly Cloudy,0,2012-12-28 22:35:00
4:55 PM,42.8,37.4,81,29.92,6.0,East,4.6,-,0.07,,Scattered Clouds,90,2012-12-28 22:55:00
5:15 PM,42.8,37.4,81,29.91,9.0,East,6.9,-,0.03,,Mostly Cloudy,90,2012-12-28 23:15:00
5:35 PM,42.8,37.4,81,29.91,8.0,East,8.1,-,0.05,,Overcast,90,2012-12-28 23:35:00
5:55 PM,42.8,37.4,81,29.90,6.0,East,6.9,-,0.09,,Overcast,80,2012-12-28 23:55:00
6:15 PM,42.8,39.2,87,29.90,6.0,ENE,4.6,-,0.04,,Mostly Cloudy,60,2012-12-29 00:15:00
6:35 PM,42.8,39.2,87,29.88,5.0,ENE,4.6,-,0.08,,Partly Cloudy,70,2012-12-29 00:35:00
6:55 PM,42.8,39.2,87,29.87,5.0,ENE,5.8,-,0.10,,Clear,70,2012-12-29 00:55:00
7:15 PM,42.8,39.2,87,29.84,7.0,East,10.4,-,0.03,,Scattered Clouds,90,2012-12-29 01:15:00
7:35 PM,42.8,39.2,87,29.84,8.0,East,8.1,-,0.04,,Mostly Cloudy,90,2012-12-29 01:35:00
7:55 PM,42.8,39.2,87,29.85,8.0,East,3.5,-,0.06,,Overcast,90,2012-12-29 01:55:00
8:15 PM,42.8,39.2,87,29.86,8.0,Calm,Calm,-,0.01,,Overcast,0,2012-12-29 02:15:00
8:35 PM,42.8,39.2,87,29.85,10.0,Calm,Calm,-,0.03,,Overcast,0,2012-12-29 02:35:00
8:55 PM,42.8,39.2,87,29.85,9.0,Calm,Calm,-,0.04,,Overcast,0,2012-12-29 02:55:00
9:15 PM,42.8,39.2,87,29.86,10.0,East,4.6,-,0.01,,Overcast,80,2012-12-29 03:15:00
9:35 PM,42.8,39.2,87,29.86,10.0,SE,8.1,-,0.03,,Overcast,130,2012-12-29 03:35:00
9:55 PM,42.8,39.2,87,29.84,10.0,ESE,6.9,-,0.05,,Overcast,120,2012-12-29 03:55:00
10:15 PM,42.8,37.4,81,29.84,10.0,SSE,9.2,-,0.04,,Overcast,150,2012-12-29 04:15:00
10:35 PM,42.8,37.4,81,29.83,10.0,SSE,12.7,-,0.05,,Overcast,150,2012-12-29 04:35:00
10:55 PM,41.0,37.4,87,29.83,10.0,SSE,10.4,17.3,0.05,,Overcast,150,2012-12-29 04:55:00
11:15 PM,41.0,37.4,87,29.83,10.0,SSE,5.8,-,N/A,,Overcast,150,2012-12-29 05:15:00
11:35 PM,41.0,37.4,87,29.83,4.0,SSE,3.5,-,0.01,,Overcast,150,2012-12-29 05:35:00
11:55 PM,41.0,37.4,87,29.82,10.0,SSE,3.5,-,0.01,,Overcast,160,2012-12-29 05:55:00